Radiation Dose at Monitoring Post of Fukushima Daini Nuclear Power Station
Date,Time,MP-1(microSv/h),MP-2(microSv/h),MP-3(microSv/h),MP-4(microSv/h),MP-5(microSv/h),MP-6(microSv/h),MP-7(microSv/h),Wind Direction,Wind Velocity(m/s),Rain
2019/05/01,00:00,0.191,0.180,0.291,0.271,0.268,0.145,0.089,south,9.5,No
2019/05/01,00:10,0.190,0.179,0.291,0.272,0.267,0.147,0.088,south,8.1,No
2019/05/01,00:20,0.191,0.179,0.291,0.272,0.267,0.146,0.089,south,8.6,No
2019/05/01,00:30,0.190,0.178,0.290,0.272,0.269,0.147,0.088,south,7.7,No
2019/05/01,00:40,0.191,0.180,0.290,0.273,0.267,0.147,0.089,south,7.3,No
2019/05/01,00:50,0.189,0.179,0.291,0.271,0.269,0.146,0.090,south-southwest,6.4,No
2019/05/01,01:00,0.190,0.178,0.290,0.272,0.267,0.146,0.089,south-southwest,7.0,No
2019/05/01,01:10,0.190,0.181,0.291,0.272,0.269,0.145,0.090,south-southwest,7.9,No
2019/05/01,01:20,0.190,0.179,0.289,0.272,0.267,0.147,0.089,south-southwest,9.2,No
2019/05/01,01:30,0.192,0.179,0.291,0.272,0.266,0.146,0.089,south-southwest,7.8,No
2019/05/01,01:40,0.190,0.181,0.290,0.270,0.267,0.146,0.089,south-southwest,7.8,No
2019/05/01,01:50,0.191,0.179,0.291,0.273,0.266,0.146,0.089,south,9.2,No
2019/05/01,02:00,0.190,0.180,0.291,0.271,0.268,0.147,0.089,south,7.0,No
2019/05/01,02:10,0.192,0.180,0.290,0.273,0.266,0.146,0.089,south,7.6,No
2019/05/01,02:20,0.190,0.179,0.291,0.273,0.269,0.147,0.089,south,7.7,No
2019/05/01,02:30,0.191,0.180,0.290,0.272,0.266,0.147,0.089,south-southwest,6.7,No
2019/05/01,02:40,0.191,0.179,0.292,0.272,0.268,0.146,0.090,south-southwest,6.7,No
2019/05/01,02:50,0.191,0.180,0.291,0.272,0.266,0.146,0.090,south-southwest,7.1,No
2019/05/01,03:00,0.191,0.179,0.291,0.272,0.268,0.147,0.089,south-southwest,7.1,No
2019/05/01,03:10,0.189,0.180,0.292,0.271,0.266,0.147,0.089,south-southwest,6.1,No
2019/05/01,03:20,0.192,0.179,0.290,0.274,0.269,0.146,0.089,south,5.9,No
2019/05/01,03:30,0.190,0.180,0.292,0.272,0.268,0.147,0.089,south,5.1,No
2019/05/01,03:40,0.191,0.180,0.291,0.273,0.268,0.146,0.089,south,4.8,No
2019/05/01,03:50,0.190,0.181,0.291,0.273,0.267,0.147,0.089,south-southwest,3.8,No
2019/05/01,04:00,0.191,0.179,0.293,0.272,0.266,0.146,0.089,south,3.2,Yes
2019/05/01,04:10,0.191,0.180,0.290,0.273,0.268,0.147,0.090,south,3.2,Yes
2019/05/01,04:20,0.192,0.179,0.291,0.273,0.266,0.146,0.090,south,2.8,Yes
2019/05/01,04:30,0.191,0.179,0.291,0.274,0.267,0.147,0.089,south,2.3,Yes
2019/05/01,04:40,0.191,0.180,0.293,0.272,0.266,0.148,0.090,south-southeast,2.0,Yes
2019/05/01,04:50,0.192,0.180,0.290,0.273,0.268,0.146,0.090,south-southeast,2.0,No
2019/05/01,05:00,0.190,0.180,0.291,0.271,0.267,0.147,0.089,south-southeast,1.6,Yes
2019/05/01,05:10,0.191,0.180,0.294,0.273,0.268,0.146,0.090,south-southeast,0.8,Yes
2019/05/01,05:20,0.191,0.180,0.291,0.272,0.266,0.147,0.090,east-southeast,0.6,Yes
2019/05/01,05:30,0.191,0.180,0.291,0.271,0.269,0.146,0.090,-,CALM,Yes
2019/05/01,05:40,0.191,0.180,0.292,0.272,0.266,0.147,0.090,-,CALM,Yes
2019/05/01,05:50,0.191,0.179,0.292,0.271,0.269,0.147,0.090,northwest,0.6,Yes
2019/05/01,06:00,0.191,0.180,0.290,0.274,0.266,0.146,0.089,north-northwest,1.0,Yes
2019/05/01,06:10,0.191,0.179,0.290,0.271,0.268,0.147,0.090,north,1.0,Yes
2019/05/01,06:20,0.190,0.180,0.292,0.273,0.266,0.146,0.090,northeast,1.0,Yes
2019/05/01,06:30,0.190,0.180,0.288,0.272,0.268,0.146,0.090,north-northeast,1.4,Yes
2019/05/01,06:40,0.192,0.180,0.290,0.271,0.266,0.146,0.090,north-northeast,1.8,Yes
2019/05/01,06:50,0.190,0.179,0.289,0.271,0.268,0.147,0.090,north-northeast,1.6,Yes
2019/05/01,07:00,0.191,0.180,0.289,0.271,0.265,0.147,0.090,north-northeast,2.1,Yes
2019/05/01,07:10,0.191,0.179,0.290,0.272,0.267,0.145,0.090,north-northeast,2.6,Yes
2019/05/01,07:20,0.189,0.180,0.287,0.271,0.266,0.146,0.090,north-northeast,2.2,Yes
2019/05/01,07:30,0.191,0.179,0.289,0.271,0.267,0.146,0.090,north-northwest,2.7,Yes
2019/05/01,07:40,0.190,0.181,0.289,0.270,0.266,0.146,0.090,north-northwest,3.5,Yes
2019/05/01,07:50,0.190,0.179,0.290,0.271,0.267,0.146,0.090,north,3.3,Yes
2019/05/01,08:00,0.189,0.179,0.288,0.270,0.267,0.147,0.090,north-northwest,3.5,No
2019/05/01,08:10,0.190,0.180,0.291,0.272,0.268,0.146,0.090,north-northwest,4.2,Yes
2019/05/01,08:20,0.191,0.180,0.288,0.269,0.267,0.147,0.089,north-northwest,3.7,Yes
2019/05/01,08:30,0.189,0.180,0.291,0.272,0.268,0.145,0.091,north-northwest,5.1,Yes
2019/05/01,08:40,0.192,0.180,0.289,0.268,0.266,0.147,0.091,north-northwest,5.2,Yes
2019/05/01,08:50,0.190,0.180,0.289,0.271,0.269,0.147,0.090,north-northwest,5.1,No
2019/05/01,09:00,0.191,0.179,0.289,0.270,0.266,0.147,0.090,north,4.8,No
2019/05/01,09:10,0.190,0.180,0.289,0.272,0.268,0.147,0.090,north-northwest,4.2,No
2019/05/01,09:20,0.191,0.180,0.289,0.270,0.266,0.146,0.090,north-northwest,4.8,No
2019/05/01,09:30,0.188,0.179,0.291,0.271,0.268,0.147,0.090,north-northwest,5.2,No
2019/05/01,09:40,0.191,0.179,0.288,0.271,0.267,0.146,0.090,north-northwest,5.1,No
2019/05/01,09:50,0.190,0.180,0.291,0.271,0.266,0.147,0.090,north-northwest,5.4,Yes
2019/05/01,10:00,0.191,0.179,0.287,0.271,0.268,0.145,0.091,north-northwest,5.1,Yes
2019/05/01,10:10,0.190,0.181,0.290,0.270,0.267,0.147,0.090,northwest,6.0,Yes
2019/05/01,10:20,0.190,0.180,0.288,0.271,0.269,0.146,0.090,north-northwest,5.6,Yes
2019/05/01,10:30,0.190,0.181,0.290,0.269,0.264,0.146,0.090,north-northwest,7.0,No
2019/05/01,10:40,0.190,0.179,0.289,0.272,0.269,0.147,0.090,north-northwest,6.4,No
2019/05/01,10:50,0.190,0.180,0.289,0.270,0.267,0.145,0.089,north,4.6,No
2019/05/01,11:00,0.190,0.179,0.288,0.269,0.265,0.146,0.090,north-northwest,5.2,No
2019/05/01,11:10,0.189,0.180,0.288,0.271,0.268,0.146,0.089,north-northwest,5.9,No
2019/05/01,11:20,0.191,0.179,0.290,0.271,0.267,0.146,0.090,north,5.2,No
2019/05/01,11:30,0.190,0.180,0.290,0.268,0.265,0.145,0.089,north,6.0,No
2019/05/01,11:40,0.191,0.180,0.287,0.272,0.267,0.146,0.090,north,5.2,No
2019/05/01,11:50,0.189,0.179,0.291,0.270,0.269,0.147,0.090,north,6.3,No
2019/05/01,12:00,0.191,0.180,0.289,0.270,0.265,0.145,0.089,north,5.9,No
2019/05/01,12:10,0.189,0.179,0.287,0.270,0.265,0.145,0.090,north-northwest,5.7,No
2019/05/01,12:20,0.191,0.181,0.291,0.272,0.270,0.146,0.090,north,6.2,No
2019/05/01,12:30,0.189,0.179,0.287,0.270,0.268,0.146,0.089,north,6.7,No
2019/05/01,12:40,0.191,0.180,0.287,0.272,0.267,0.146,0.089,north,7.3,No
2019/05/01,12:50,0.190,0.179,0.292,0.271,0.270,0.146,0.089,north,7.6,No
2019/05/01,13:00,0.192,0.180,0.288,0.270,0.267,0.145,0.089,north,7.3,No
2019/05/01,13:10,0.191,0.180,0.291,0.272,0.268,0.145,0.089,north,7.8,No
2019/05/01,13:20,0.191,0.180,0.289,0.270,0.270,0.145,0.089,north,7.6,No
2019/05/01,13:30,0.191,0.179,0.290,0.273,0.267,0.146,0.089,north,7.9,No
2019/05/01,13:40,0.190,0.180,0.293,0.272,0.270,0.147,0.090,north,8.1,No
2019/05/01,13:50,0.190,0.180,0.289,0.271,0.267,0.146,0.090,north,7.3,No
2019/05/01,14:00,0.190,0.181,0.292,0.272,0.268,0.146,0.089,north,7.7,No
2019/05/01,14:10,0.192,0.180,0.290,0.270,0.269,0.146,0.088,north,7.3,No
2019/05/01,14:20,0.190,0.180,0.291,0.273,0.268,0.145,0.089,north,6.0,No
2019/05/01,14:30,0.191,0.179,0.291,0.271,0.269,0.147,0.089,north,7.3,No
2019/05/01,14:40,0.190,0.180,0.292,0.275,0.266,0.147,0.089,north,7.1,No
2019/05/01,14:50,0.191,0.181,0.291,0.272,0.271,0.147,0.090,north,6.5,No
2019/05/01,15:00,0.191,0.180,0.290,0.272,0.267,0.146,0.089,north,6.5,No
2019/05/01,15:10,0.191,0.181,0.290,0.272,0.270,0.146,0.089,north,6.2,No
2019/05/01,15:20,0.191,0.180,0.292,0.272,0.269,0.146,0.090,north,5.4,No
2019/05/01,15:30,0.191,0.181,0.292,0.273,0.269,0.147,0.090,north,5.1,No
2019/05/01,15:40,0.191,0.180,0.289,0.272,0.268,0.146,0.090,north,5.3,No
2019/05/01,15:50,0.190,0.180,0.291,0.274,0.267,0.146,0.089,north,5.1,No
2019/05/01,16:00,0.192,0.180,0.291,0.271,0.269,0.146,0.090,north,6.0,No
2019/05/01,16:10,0.191,0.180,0.292,0.274,0.266,0.145,0.089,north,6.0,No
2019/05/01,16:20,0.192,0.180,0.289,0.272,0.268,0.147,0.089,north,5.9,No
2019/05/01,16:30,0.190,0.180,0.293,0.273,0.269,0.146,0.089,north-northwest,6.2,Yes
2019/05/01,16:40,0.192,0.181,0.290,0.273,0.270,0.146,0.089,north,5.0,Yes
2019/05/01,16:50,0.192,0.182,0.294,0.273,0.269,0.148,0.091,north-northwest,3.4,Yes
2019/05/01,17:00,0.194,0.183,0.293,0.274,0.272,0.150,0.092,north-northwest,2.3,Yes
2019/05/01,17:10,0.194,0.185,0.296,0.276,0.270,0.150,0.094,north-northwest,2.0,Yes
2019/05/01,17:20,0.196,0.186,0.294,0.276,0.272,0.151,0.094,north-northwest,2.3,Yes
2019/05/01,17:30,0.194,0.186,0.295,0.276,0.272,0.151,0.094,north-northwest,1.4,Yes
2019/05/01,17:40,0.197,0.186,0.296,0.275,0.272,0.153,0.095,north,1.4,Yes
2019/05/01,17:50,0.195,0.184,0.296,0.276,0.271,0.152,0.094,north-northwest,2.0,Yes
2019/05/01,18:00,0.197,0.185,0.294,0.275,0.272,0.151,0.093,north,1.8,Yes
2019/05/01,18:10,0.195,0.184,0.294,0.276,0.270,0.150,0.093,north-northwest,1.5,Yes
2019/05/01,18:20,0.195,0.184,0.294,0.274,0.272,0.151,0.093,west-northwest,2.1,Yes
2019/05/01,18:30,0.194,0.183,0.294,0.276,0.270,0.149,0.094,west,2.1,Yes
2019/05/01,18:40,0.195,0.182,0.293,0.274,0.272,0.150,0.092,west-southwest,2.3,Yes
2019/05/01,18:50,0.194,0.183,0.293,0.274,0.271,0.150,0.092,west,3.3,Yes
2019/05/01,19:00,0.193,0.182,0.293,0.273,0.270,0.149,0.092,west,4.0,Yes
2019/05/01,19:10,0.192,0.183,0.294,0.274,0.270,0.148,0.092,west-northwest,3.9,Yes
2019/05/01,19:20,0.193,0.183,0.293,0.272,0.271,0.149,0.093,west-northwest,4.6,Yes
2019/05/01,19:30,0.193,0.183,0.291,0.274,0.269,0.149,0.092,west-northwest,2.6,Yes
2019/05/01,19:40,0.192,0.182,0.296,0.274,0.273,0.148,0.092,west,2.8,Yes
2019/05/01,19:50,0.193,0.181,0.292,0.274,0.270,0.148,0.092,west,2.1,No
2019/05/01,20:00,0.193,0.182,0.291,0.274,0.269,0.148,0.091,northwest,2.0,No
2019/05/01,20:10,0.192,0.181,0.292,0.274,0.268,0.148,0.091,west-northwest,2.7,No
2019/05/01,20:20,0.191,0.182,0.291,0.272,0.270,0.148,0.092,west-northwest,3.1,Yes
2019/05/01,20:30,0.193,0.181,0.293,0.273,0.270,0.148,0.093,west-northwest,2.0,Yes
2019/05/01,20:40,0.192,0.183,0.292,0.274,0.271,0.150,0.094,northwest,1.6,Yes
2019/05/01,20:50,0.195,0.184,0.295,0.274,0.270,0.151,0.094,-,CALM,Yes
2019/05/01,21:00,0.194,0.182,0.293,0.276,0.273,0.151,0.095,west-southwest,0.6,Yes
2019/05/01,21:10,0.195,0.185,0.293,0.275,0.269,0.150,0.094,north-northwest,2.2,Yes
2019/05/01,21:20,0.195,0.184,0.294,0.277,0.274,0.152,0.094,northwest,2.0,Yes
2019/05/01,21:30,0.195,0.185,0.295,0.275,0.272,0.151,0.095,west-northwest,2.6,Yes
2019/05/01,21:40,0.197,0.185,0.294,0.277,0.273,0.152,0.096,west,1.1,Yes
2019/05/01,21:50,0.195,0.185,0.294,0.275,0.271,0.151,0.095,west,5.4,Yes
2019/05/01,22:00,0.196,0.186,0.293,0.277,0.274,0.151,0.095,northwest,3.2,Yes
2019/05/01,22:10,0.196,0.186,0.293,0.276,0.273,0.152,0.095,northwest,6.2,Yes
2019/05/01,22:20,0.197,0.187,0.296,0.279,0.275,0.154,0.097,northwest,6.0,Yes
2019/05/01,22:30,0.198,0.188,0.296,0.280,0.274,0.156,0.099,northwest,4.1,Yes
2019/05/01,22:40,0.198,0.188,0.297,0.278,0.276,0.155,0.098,west-northwest,4.3,Yes
2019/05/01,22:50,0.198,0.188,0.297,0.279,0.275,0.156,0.099,west-northwest,4.1,Yes
2019/05/01,23:00,0.197,0.187,0.296,0.278,0.273,0.155,0.099,west,5.7,Yes
2019/05/01,23:10,0.197,0.187,0.297,0.276,0.274,0.154,0.097,west-northwest,6.5,Yes
2019/05/01,23:20,0.196,0.187,0.295,0.277,0.271,0.153,0.097,west,5.6,Yes
2019/05/01,23:30,0.196,0.186,0.296,0.277,0.274,0.153,0.096,west,5.2,Yes
2019/05/01,23:40,0.196,0.186,0.295,0.278,0.271,0.152,0.097,west,4.0,Yes
2019/05/01,23:50,0.195,0.186,0.295,0.275,0.273,0.151,0.095,west,2.3,Yes
